sat.trackr.live / text

‹ back to catalog

FORMOSAT 7-3

NORAD 44343 · 2019-036E

PAYLOAD ACTIVE UNKNOWN

§ Identity

Operator
Country
ROC
Launch date
2019-06-25
Launch site
AFETR
Launch vehicle
Mass (kg)
RCS (m²)

External: N2YO · Heavens-Above · Gunter

§ Orbital elements

Epoch: 2026-09-20T00:02:03.622848Z

Period
95.34 min
Inclination
23.9985°
Eccentricity
0.0000493
Mean motion
15.10410208 rev/d
Perigee alt
534.6 km
Apogee alt
535.3 km
Semi-major
6,913.1 km
B*
1.7009e-4
RAAN
245.6609°
Arg perigee
2.7432°
Mean anomaly
357.3074°
Rev number
39,759

§ Raw data

FORMOSAT 7-31 44343U 19036E   26263.00143082  .00003216  00000+0  17009-3 0  99952 44343  23.9985 245.6609 0000493   2.7432 357.3074 15.10410208397596

JSON: /api/v1/satellites/44343 · /tle

For live sub-satellite position, see the globe view (requires WebGL).

§ Visibility from observer

Set your observer location to see the next 7 days of passes ≥ 10°. The values pass through the URL so the page stays shareable.

No JS? Fill the form by hand. The geolocation button needs JavaScript.

§ Radio — SatNOGS DB

ModeDescriptionDownlinkUplink
CW Downlink 400.900 MHz

1 transmitter · refreshed weekly from db.satnogs.org